Home   Weather   Bellingham   Past weeks

Flag for USA Past Weather in Bellingham, Washington, USA — Yesterday and Last 2 Weeks

Now
53 °F

Passing clouds.


Feels Like: 51 °F
Forecast: 46 / 54 °F
Wind: 8 mph from South

Location: Bellingham International Airport

Current Time: Apr 27, 2017 at 3:45:04 pm

Latest Report: Apr 27, 2017 at 2:53 pm


Visibility: 10 mi

Pressure: 30.09 "Hg

Humidity: 59%

Dew Point: 39 °F

Location of BellinghamLocation

Past Weather in Bellingham — Graph

°F

Bellingham Temperature Yesterday

Maximum temperature yesterday: 57 °F (at 1:53 pm)
Minimum temperature yesterday: 49 °F (at 12:53 am)
Average temperature yesterday: 52 °F

High & Low Weather Summary for the Past Weeks

 TemperatureHumidityPressure
High67 °F (Apr 21, 3:53 pm)100% (Apr 17, 4:53 am)30.44 "Hg (Apr 17, 4:53 am)
Low39 °F (Apr 16, 3:53 am)32% (Apr 16, 3:53 pm)29.66 "Hg (Apr 12, 9:53 pm)
Average51 °F75%29.96 "Hg
* Reported Apr 12 1:53 pm — Apr 27 1:53 pm, Bellingham, Weather by CustomWeather, © 2017

Note: Actual official high and low records may vary slightly from our data, if they occured in-between our weather recording intervals... More about our weather records

Advertising

Bellingham Weather History for the Previous 24 Hours

Scroll right to see more
 ConditionsComfort  
Time TempWeatherWind HumidityBarometerVisibility
1:53 pm
Thu, Apr 27
53 °FPartly sunny.7 mph59%30.08 "Hg10 mi
12:53 pm52 °FMostly cloudy.6 mph61%30.08 "Hg10 mi
11:53 am50 °FMore clouds than sun.No wind68%30.09 "Hg10 mi
10:53 am48 °FLight rain. More clouds than sun.6 mph80%30.08 "Hg5 mi
9:53 am48 °FMore clouds than sun.3 mph80%30.08 "Hg10 mi
9:36 am47 °FLight rain. Cloudy.3 mph80%30.05 "Hg10 mi
8:53 am47 °FOvercast.5 mph80%30.06 "Hg10 mi
7:53 am47 °FMore clouds than sun.7 mph80%30.05 "Hg10 mi
6:55 am46 °FMore clouds than sun.9 mph83%30.01 "Hg10 mi
5:53 am46 °FOvercast.6 mph86%30.02 "Hg10 mi
4:53 am46 °FMostly cloudy.5 mph86%30.01 "Hg10 mi
3:53 am46 °FOvercast.No wind89%30.00 "Hg10 mi
2:53 am46 °FLight rain. Fog.5 mph86%29.99 "Hg6 mi
1:53 am48 °FOvercast.3 mph74%29.98 "Hg10 mi
12:53 am49 °FOvercast.5 mph64%29.97 "Hg10 mi
11:53 pm
Wed, Apr 26
49 °FMostly cloudy.5 mph64%29.95 "Hg10 mi
10:53 pm50 °FMostly cloudy.7 mph63%29.94 "Hg10 mi
10:30 pm50 °FMostly cloudy.N/A63%29.91 "Hg10 mi
9:53 pm50 °FMostly cloudy.6 mph63%29.92 "Hg10 mi
8:53 pm51 °FOvercast.7 mph59%29.90 "Hg10 mi
7:53 pm53 °FOvercast.3 mph55%29.88 "Hg10 mi
6:53 pm55 °FScattered clouds.8 mph49%29.86 "Hg10 mi
5:53 pm56 °FOvercast.9 mph49%29.85 "Hg10 mi
4:53 pm57 °FBroken clouds.12 mph49%29.83 "Hg10 mi
3:53 pm56 °FScattered clouds.9 mph60%29.82 "Hg10 mi
Weather by CustomWeather, © 2017

See weather overviewHow to use our weather pages